Voltar ao catálogo

STARLINK-30264

AtivoComunicaçõesVLEO
NORAD 57534·PAYLOAD·🇺🇸 United States

Lançado Aug 8, 2023 de Vandenberg Space Force Base

Loading…

Próximas Passagens (próximas 24 horas)

TLE

AtualizadoSource: CelesTrak SupGP

Época: Sep 15, 2026, 02:59 UTC

1 57534C 23115P   26258.12479167 -.00055775  00000+0 -20205-2 0  2585
2 57534  43.0018 219.0709 0001345 270.8389 258.8963 15.27600857    13

Acompanhe STARLINK-30264 em tempo real com AllMySat

Download on the App Store